Bangkok, Thailand

11:22 PM ICT on January 23, 2017 (GMT +0700)
Bangkok International

Weather History for VTBD - April, 2014

Change the Weather History Date:

Sunday, April 20, 2014

  Actual Average Record
Temperature  
Mean Temperature 90 °F -  
Max Temperature 97 °F 92 °F 100 °F (2001)
Min Temperature 83 °F 78 °F 77 °F (2011)
Cooling Degree Days 25    
Growing Degree Days 40 (Base 50)    
Moisture  
Dew Point 76 °F    
Average Humidity 64    
Maximum Humidity 79    
Minimum Humidity 37    
Precipitation  
Precipitation 0.00 in 0.17 in - ()
Sea Level Pressure  
Sea Level Pressure 29.76 in    
Wind  
Wind Speed 8 mph ()    
Max Wind Speed 14 mph    
Max Gust Speed -    
Visibility 6.2 miles    
Events      
Averages and records for this station are not official NWS values.
T = Trace of Precipitation, MM = Missing Value Source: Averaged Metar Reports

Daily Weather History Graph

Daily Weather History Graph

Search for Another Location

Airport or City:

Trip Planner

Search our weather history database for the weather conditions in past years. The results will help you decide how hot, cold, wet, or windy it might be!

Date:

Astronomy

Apr. 20, 2014 Rise Set
Actual Time 6:01 AM ICT 6:31 PM ICT
Civil Twilight 5:39 AM ICT 6:53 PM ICT
Nautical Twilight 5:14 AM ICT 7:19 PM ICT
Astronomical Twilight 4:48 AM ICT 7:44 PM ICT
Moon 11:18 PM ICT (4/20) 10:09 AM ICT (4/20)
Length of Visible Light 13h 13m
Length of Day
12h 29m
Waning Gibbous, 73% of the Moon is Illuminated
Apr 20
Waning Gibbous
Apr 22
Last Quarter
Apr 29
New
May 7
First Quarter
May 15
Full

Hourly Weather History & Observations

Time (ICT) Temp. Heat Index Dew Point Humidity Pressure Visibility Wind Dir Wind Speed Gust Speed Precip Events Conditions
12:00 AM 86.0 °F 96.9 °F 77.0 °F 74% 29.77 in 6.2 mi South 10.4 mph - N/A   Scattered Clouds
12:30 AM 86.0 °F 96.9 °F 77.0 °F 74% 29.77 in 6.2 mi South 8.1 mph - N/A   Scattered Clouds
1:00 AM 86 °F - 76 °F 67% 29.77 in 6 mi South 9.2 mph - -   Scattered Clouds
1:00 AM 86.0 °F 96.9 °F 77.0 °F 74% 29.77 in 6.2 mi South 9.2 mph - N/A   Scattered Clouds
1:30 AM 86.0 °F 96.9 °F 77.0 °F 74% 29.74 in 6.2 mi South 8.1 mph - N/A   Scattered Clouds
2:00 AM 84.2 °F 94.1 °F 77.0 °F 79% 29.74 in 6.2 mi SSW 6.9 mph - N/A   Scattered Clouds
2:30 AM 84.2 °F 94.1 °F 77.0 °F 79% 29.74 in 6.2 mi South 8.1 mph - N/A   Scattered Clouds
3:00 AM 84.2 °F 94.1 °F 77.0 °F 79% 29.74 in 6.2 mi SSW 8.1 mph - N/A   Scattered Clouds
3:30 AM 84.2 °F 94.1 °F 77.0 °F 79% 29.74 in 6.2 mi SSW 6.9 mph - N/A   Scattered Clouds
4:00 AM 85 °F - 78 °F 73% 29.75 in 6 mi South 8.1 mph - -   Scattered Clouds
4:00 AM 84.2 °F 94.1 °F 77.0 °F 79% 29.74 in 6.2 mi South 8.1 mph - N/A   Scattered Clouds
4:30 AM 84.2 °F 94.1 °F 77.0 °F 79% 29.74 in 6.2 mi SSW 5.8 mph - N/A   Scattered Clouds
5:00 AM 84.2 °F 94.1 °F 77.0 °F 79% 29.74 in 6.2 mi South 6.9 mph - N/A   Scattered Clouds
5:30 AM 84.2 °F 94.1 °F 77.0 °F 79% 29.74 in 6.2 mi South 6.9 mph - N/A   Scattered Clouds
6:00 AM 84.2 °F 94.1 °F 77.0 °F 79% 29.77 in 6.2 mi South 5.8 mph - N/A   Scattered Clouds
6:30 AM 84.2 °F 94.1 °F 77.0 °F 79% 29.77 in 6.2 mi SSE 4.6 mph - N/A   Scattered Clouds
7:00 AM 85 °F - 78 °F 73% 29.78 in 6 mi East 3.5 mph - -   Scattered Clouds
7:00 AM 84.2 °F 94.1 °F 77.0 °F 79% 29.77 in 6.2 mi East 3.5 mph - N/A   Scattered Clouds
7:30 AM 86.0 °F 96.9 °F 77.0 °F 74% 29.80 in 6.2 mi ESE 3.5 mph - N/A   Scattered Clouds
8:00 AM 87.8 °F 99.7 °F 77.0 °F 70% 29.80 in 6.2 mi SSE 5.8 mph - N/A   Mostly Cloudy
8:30 AM 87.8 °F 99.7 °F 77.0 °F 70% 29.80 in 6.2 mi SSE 9.2 mph - N/A   Mostly Cloudy
9:00 AM 89.6 °F 102.2 °F 77.0 °F 66% 29.83 in 6.2 mi South 8.1 mph - N/A   Mostly Cloudy
9:30 AM 91.4 °F 105.1 °F 77.0 °F 63% 29.83 in 6.2 mi South 8.1 mph - N/A   Scattered Clouds
10:00 AM 92 °F - 76 °F 52% 29.83 in 6 mi SSE 10.4 mph - -   Scattered Clouds
10:00 AM 93.2 °F 107.2 °F 77.0 °F 59% 29.83 in 6.2 mi SSE 10.4 mph - N/A   Scattered Clouds
10:30 AM 93.2 °F 107.2 °F 77.0 °F 59% 29.83 in 6.2 mi South 9.2 mph - N/A   Scattered Clouds
11:00 AM 95.0 °F 107.4 °F 75.2 °F 53% 29.80 in 6.2 mi SSW 9.2 mph - N/A   Scattered Clouds
11:30 AM 95.0 °F 107.4 °F 75.2 °F 53% 29.80 in 6.2 mi South 10.4 mph - N/A   Scattered Clouds
12:00 PM 95.0 °F 104.5 °F 73.4 °F 49% 29.80 in 6.2 mi SSW 10.4 mph - N/A   Scattered Clouds
12:30 PM 96.8 °F 109.6 °F 75.2 °F 50% 29.77 in 6.2 mi South 9.2 mph - N/A   Scattered Clouds
1:00 PM 97 °F - 74 °F 39% 29.78 in 6 mi SSW 9.2 mph - -   Scattered Clouds
1:00 PM 96.8 °F 109.6 °F 75.2 °F 50% 29.77 in 6.2 mi SSW 9.2 mph - N/A   Scattered Clouds
1:30 PM 96.8 °F 109.6 °F 75.2 °F 50% 29.74 in 6.2 mi South 10.4 mph - N/A   Scattered Clouds
2:00 PM 96.8 °F 107.3 °F 73.4 °F 47% 29.74 in 6.2 mi SSW 10.4 mph - N/A   Scattered Clouds
2:30 PM 96.8 °F 107.3 °F 73.4 °F 47% 29.71 in 6.2 mi SSW 11.5 mph - N/A   Mostly Cloudy
3:00 PM 96.8 °F 109.6 °F 75.2 °F 50% 29.71 in 6.2 mi SSW 9.2 mph - N/A   Mostly Cloudy
3:30 PM 96.8 °F 107.3 °F 73.4 °F 47% 29.68 in 6.2 mi South 9.2 mph - N/A   Mostly Cloudy
4:00 PM 96 °F - 72 °F 37% 29.70 in 6 mi SSW 9.2 mph - -   Scattered Clouds
4:00 PM 95.0 °F 104.5 °F 73.4 °F 49% 29.68 in 6.2 mi SSW 9.2 mph - N/A   Mostly Cloudy
4:30 PM 95.0 °F 104.5 °F 73.4 °F 49% 29.68 in 6.2 mi South 11.5 mph - N/A   Mostly Cloudy
5:00 PM 95.0 °F 104.5 °F 73.4 °F 49% 29.68 in 6.2 mi South 13.8 mph - N/A   Mostly Cloudy
5:30 PM 93.2 °F 100.5 °F 71.6 °F 49% 29.68 in 6.2 mi SSW 13.8 mph - N/A   Mostly Cloudy
6:00 PM 91.4 °F 102.5 °F 75.2 °F 59% 29.68 in 6.2 mi SSW 11.5 mph - N/A   Mostly Cloudy
6:30 PM 89.6 °F 98.2 °F 73.4 °F 59% 29.68 in 6.2 mi SSW 10.4 mph - N/A   Mostly Cloudy
7:00 PM 89 °F - 73 °F 51% 29.72 in 6 mi South 9.2 mph - -   Scattered Clouds
7:00 PM 89.6 °F 98.2 °F 73.4 °F 59% 29.71 in 6.2 mi South 9.2 mph - N/A   Mostly Cloudy
7:30 PM 87.8 °F 95.6 °F 73.4 °F 62% 29.71 in 6.2 mi South 10.4 mph - N/A   Mostly Cloudy
8:00 PM 87.8 °F 97.6 °F 75.2 °F 66% 29.71 in 6.2 mi South 8.1 mph - N/A   Mostly Cloudy
8:30 PM 87.8 °F 97.6 °F 75.2 °F 66% 29.74 in 6.2 mi South 8.1 mph - N/A   Mostly Cloudy
9:00 PM 86.0 °F 95.1 °F 75.2 °F 70% 29.77 in 6.2 mi SSW 6.9 mph - N/A   Mostly Cloudy
9:30 PM 87.8 °F 97.6 °F 75.2 °F 66% 29.80 in 6.2 mi SSW 8.1 mph - N/A   Mostly Cloudy
10:00 PM 87 °F - 75 °F 59% 29.81 in 6 mi South 9.2 mph - -   Scattered Clouds
10:00 PM 87.8 °F 97.6 °F 75.2 °F 66% 29.80 in 6.2 mi South 9.2 mph - N/A   Mostly Cloudy
10:30 PM 86.0 °F 95.1 °F 75.2 °F 70% 29.80 in 6.2 mi South 6.9 mph - N/A   Mostly Cloudy
11:00 PM 86.0 °F 95.1 °F 75.2 °F 70% 29.80 in 6.2 mi SSW 8.1 mph - N/A   Mostly Cloudy
11:30 PM 86.0 °F 96.9 °F 77.0 °F 74% 29.80 in 6.2 mi South 4.6 mph - N/A   Mostly Cloudy